| time (UTC) | temp C | wind direction | speed KPH | gust KPH | rain 1hr cm | rain 24hr cm | rain mn cm | humidity % | barometer mb |
| 20260510153054 | 9 | 135 | 0.0 | 1.6 | 0.00 | 0.03 | 0.00 | 85 | 1029.8 |
| 20260510151550 | 10 | 135 | 0.0 | 3.2 | 0.00 | 0.03 | 0.00 | 85 | 1029.8 |
| 20260510150050 | 10 | 65 | 0.0 | 4.8 | 0.00 | 0.03 | 0.00 | 86 | 1029.9 |
| 20260510144548 | 10 | 127 | 1.6 | 6.4 | 0.00 | 0.03 | 0.00 | 86 | 1030.0 |
| 20260510143053 | 10 | 180 | 1.6 | 4.8 | 0.00 | 0.03 | 0.00 | 86 | 1030.0 |
| 20260510141552 | 10 | 180 | 0.0 | 3.2 | 0.00 | 0.03 | 0.00 | 86 | 1030.1 |
| 20260510140048 | 10 | 180 | 0.0 | 4.8 | 0.00 | 0.03 | 0.00 | 87 | 1030.1 |
| 20260510134546 | 10 | 180 | 0.0 | 4.8 | 0.00 | 0.03 | 0.00 | 87 | 1030.1 |
| 20260510133045 | 10 | 180 | 0.0 | 3.2 | 0.00 | 0.03 | 0.00 | 88 | 1030.2 |
| 20260510131544 | 10 | 180 | 0.0 | 3.2 | 0.00 | 0.03 | 0.00 | 89 | 1030.2 |
| 20260510130045 | 10 | 180 | 0.0 | 4.8 | 0.00 | 0.03 | 0.00 | 90 | 1030.2 |
| 20260510124553 | 10 | 180 | 0.0 | 4.8 | 0.00 | 0.03 | 0.00 | 90 | 1030.3 |
| 20260510123047 | 10 | 180 | 1.6 | 6.4 | 0.00 | 0.03 | 0.00 | 91 | 1030.3 |
| 20260510121549 | 9 | 180 | 1.6 | 4.8 | 0.00 | 0.03 | 0.00 | 92 | 1030.4 |
| 20260510120046 | 9 | 180 | 3.2 | 8.0 | 0.00 | 0.03 | 0.00 | 92 | 1030.4 |
| 20260510114553 | 10 | 180 | 3.2 | 8.0 | 0.00 | 0.03 | 0.00 | 91 | 1030.4 |
| 20260510113045 | 10 | 76 | 3.2 | 11.3 | 0.00 | 0.03 | 0.00 | 91 | 1030.4 |
| 20260510111544 | 10 | 74 | 3.2 | 8.0 | 0.00 | 0.03 | 0.00 | 91 | 1030.1 |
| 20260510110043 | 10 | 180 | 3.2 | 6.4 | 0.00 | 0.03 | 0.00 | 91 | 1030.0 |
| 20260510104542 | 10 | 74 | 0.0 | 1.6 | 0.00 | 0.03 | 0.00 | 90 | 1029.8 |
| 20260510103047 | 10 | 72 | 3.2 | 8.0 | 0.00 | 0.03 | 0.00 | 90 | 1029.8 |
| 20260510101539 | 10 | 180 | 4.8 | 9.7 | 0.00 | 0.03 | 0.00 | 89 | 1029.7 |
| 20260510100052 | 10 | 180 | 0.0 | 6.4 | 0.00 | 0.03 | 0.00 | 88 | 1029.5 |
| 20260510094538 | 11 | 180 | 3.2 | 8.0 | 0.00 | 0.03 | 0.00 | 88 | 1029.4 |
| 20260510093044 | 11 | 180 | 3.2 | 8.0 | 0.00 | 0.03 | 0.00 | 87 | 1029.3 |
| 20260510091537 | 11 | 72 | 4.8 | 12.9 | 0.00 | 0.03 | 0.00 | 86 | 1029.1 |
| 20260510090036 | 12 | 83 | 6.4 | 11.3 | 0.00 | 0.03 | 0.00 | 85 | 1028.8 |
| 20260510084533 | 12 | 133 | 3.2 | 8.0 | 0.00 | 0.03 | 0.00 | 84 | 1028.5 |
| 20260510083029 | 12 | 180 | 3.2 | 9.7 | 0.00 | 0.03 | 0.00 | 83 | 1028.2 |
| 20260510081527 | 12 | 68 | 3.2 | 12.9 | 0.00 | 0.03 | 0.00 | 81 | 1027.9 |
| 20260510080027 | 13 | 131 | 3.2 | 8.0 | 0.00 | 0.03 | 0.00 | 78 | 1027.7 |
| 20260510074528 | 13 | 65 | 3.2 | 8.0 | 0.00 | 0.03 | 0.00 | 75 | 1027.5 |
| 20260510073028 | 14 | 63 | 0.0 | 8.0 | 0.00 | 0.03 | 0.00 | 72 | 1027.1 |
| 20260510071536 | 15 | 70 | 4.8 | 12.9 | 0.00 | 0.03 | 0.00 | 65 | 1027.0 |
| 20260510070028 | 16 | 67 | 1.6 | 9.7 | 0.00 | 0.03 | 0.00 | 62 | 1026.6 |
| 20260510064528 | 16 | 43 | 0.0 | 8.0 | 0.00 | 0.03 | 0.00 | 60 | 1026.5 |
| 20260510063029 | 17 | 180 | 3.2 | 8.0 | 0.00 | 0.03 | 0.00 | 58 | 1026.2 |
| 20260510061540 | 17 | 19 | 1.6 | 11.3 | 0.00 | 0.03 | 0.00 | 56 | 1026.1 |
| 20260510060029 | 18 | 20 | 1.6 | 12.9 | 0.00 | 0.03 | 0.00 | 55 | 1026.0 |
| 20260510054526 | 18 | 64 | 0.0 | 4.8 | 0.00 | 0.03 | 0.00 | 55 | 1026.0 |
| 20260510053024 | 18 | 54 | 1.6 | 4.8 | 0.00 | 0.03 | 0.00 | 55 | 1025.9 |
| 20260510051525 | 18 | 11 | 1.6 | 8.0 | 0.00 | 0.03 | 0.00 | 55 | 1025.8 |
| 20260510050023 | 18 | 345 | 1.6 | 8.0 | 0.00 | 0.03 | 0.00 | 52 | 1025.8 |
| 20260510044524 | 18 | 85 | 1.6 | 8.0 | 0.00 | 0.03 | 0.00 | 51 | 1025.8 |
| 20260510043023 | 18 | 9 | 0.0 | 8.0 | 0.00 | 0.03 | 0.00 | 54 | 1025.8 |
| 20260510041521 | 18 | 326 | 4.8 | 11.3 | 0.00 | 0.03 | 0.00 | 52 | 1025.9 |
| 20260510040019 | 18 | 348 | 1.6 | 8.0 | 0.00 | 0.03 | 0.00 | 54 | 1025.9 |
| 20260510034521 | 18 | 66 | 3.2 | 8.0 | 0.00 | 0.03 | 0.00 | 54 | 1025.9 |
| 20260510033019 | 17 | 38 | 3.2 | 8.0 | 0.00 | 0.03 | 0.00 | 55 | 1026.0 |
| 20260510031534 | 17 | 62 | 0.0 | 4.8 | 0.00 | 0.03 | 0.00 | 51 | 1026.1 |
| 20260510030020 | 18 | 10 | 0.0 | 4.8 | 0.00 | 0.03 | 0.00 | 54 | 1026.2 |
| 20260510024512 | 17 | 58 | 1.6 | 16.1 | 0.00 | 0.03 | 0.00 | 57 | 1026.4 |
| 20260510023007 | 17 | 302 | 0.0 | 8.0 | 0.00 | 0.03 | 0.00 | 57 | 1026.7 |
| 20260510021505 | 17 | 318 | 4.8 | 11.3 | 0.00 | 0.03 | 0.00 | 55 | 1027.0 |
| 20260510020003 | 17 | 91 | 0.0 | 9.7 | 0.00 | 0.03 | 0.00 | 58 | 1027.2 |
| 20260510014559 | 16 | 83 | 1.6 | 8.0 | 0.00 | 0.03 | 0.00 | 56 | 1027.4 |
| 20260510013057 | 16 | 122 | 1.6 | 8.0 | 0.00 | 0.03 | 0.00 | 56 | 1027.6 |
| 20260510011557 | 16 | 69 | 0.0 | 8.0 | 0.00 | 0.03 | 0.00 | 59 | 1027.6 |
| 20260510010053 | 16 | 350 | 1.6 | 4.8 | 0.00 | 0.03 | 0.00 | 61 | 1027.7 |
| 20260510004556 | 15 | 89 | 4.8 | 8.0 | 0.00 | 0.03 | 0.00 | 62 | 1027.8 |
| 20260510003108 | 15 | 180 | 1.6 | 6.4 | 0.00 | 0.03 | 0.00 | 66 | 1027.8 |
| 20260510001546 | 14 | 180 | 1.6 | 9.7 | 0.00 | 0.03 | 0.00 | 68 | 1027.8 |
| 20260510000046 | 13 | 180 | 4.8 | 9.7 | 0.00 | 0.03 | 0.00 | 70 | 1027.7 |
| 20260509234554 | 13 | 180 | 4.8 | 9.7 | 0.00 | 0.03 | 0.00 | 75 | 1027.8 |
| 20260509233033 | 12 | 180 | 0.0 | 8.0 | 0.00 | 0.03 | 0.00 | 84 | 1027.8 |
| 20260509231536 | 11 | 180 | 0.0 | 6.4 | 0.00 | 0.03 | 0.00 | 93 | 1027.8 |
| 20260509230031 | 10 | 180 | 0.0 | 0.0 | 0.00 | 0.03 | 0.00 | 95 | 1027.9 |
| 20260509224525 | 8 | 257 | 0.0 | 0.0 | 0.00 | 0.03 | 0.00 | 95 | 1028.0 |
| 20260509223019 | 8 | 251 | 0.0 | 0.0 | 0.00 | 0.03 | 0.00 | 95 | 1027.8 |
| 20260509221518 | 7 | 180 | 0.0 | 0.0 | 0.00 | 0.03 | 0.03 | 95 | 1027.7 |
| 20260509220017 | 5 | 180 | 0.0 | 0.0 | 0.00 | 0.03 | 0.03 | 95 | 1027.6 |
| 20260509214515 | 3 | 180 | 0.0 | 0.0 | 0.00 | 0.03 | 0.03 | 95 | 1027.4 |
| 20260509213117 | 3 | 180 | 0.0 | 0.0 | 0.00 | 0.03 | 0.03 | 95 | 1027.2 |
| 20260509211513 | 3 | 180 | 0.0 | 0.0 | 0.00 | 0.03 | 0.03 | 95 | 1027.0 |
| 20260509210015 | 3 | 180 | 0.0 | 0.0 | 0.00 | 0.03 | 0.03 | 95 | 1026.8 |
| 20260509204512 | 3 | 180 | 0.0 | 0.0 | 0.00 | 0.03 | 0.03 | 95 | 1026.7 |
| 20260509203014 | 3 | 180 | 0.0 | 0.0 | 0.00 | 0.03 | 0.03 | 95 | 1026.5 |
| 20260509201510 | 3 | 180 | 0.0 | 0.0 | 0.00 | 0.03 | 0.03 | 95 | 1026.3 |
| 20260509200008 | 3 | 180 | 0.0 | 0.0 | 0.00 | 0.03 | 0.03 | 95 | 1026.2 |
| 20260509194510 | 3 | 180 | 0.0 | 0.0 | 0.00 | 0.03 | 0.03 | 94 | 1025.9 |
| 20260509193003 | 3 | 180 | 0.0 | 0.0 | 0.00 | 0.03 | 0.03 | 94 | 1025.8 |
| 20260509191503 | 3 | 180 | 0.0 | 0.0 | 0.00 | 0.03 | 0.03 | 94 | 1025.6 |
| 20260509190100 | 4 | 180 | 0.0 | 0.0 | 0.00 | 0.03 | 0.03 | 95 | 1025.5 |
| 20260509184602 | 4 | 180 | 0.0 | 0.0 | 0.00 | 0.03 | 0.03 | 94 | 1025.3 |
| 20260509183135 | 4 | 180 | 0.0 | 0.0 | 0.03 | 0.03 | 0.03 | 94 | 1025.2 |
| 20260509181609 | 5 | 180 | 0.0 | 0.0 | 0.03 | 0.03 | 0.03 | 94 | 1025.0 |
| 20260509180053 | 5 | 180 | 0.0 | 3.2 | 0.03 | 0.03 | 0.03 | 95 | 1024.9 |
| 20260509174553 | 5 | 180 | 0.0 | 0.0 | 0.03 | 0.03 | 0.03 | 95 | 1024.8 |
| 20260509173058 | 5 | 180 | 0.0 | 0.0 | 0.00 | 0.00 | 0.00 | 94 | 1024.9 |
| 20260509171552 | 5 | 180 | 0.0 | 0.0 | 0.00 | 0.00 | 0.00 | 94 | 1024.8 |
| 20260509170053 | 5 | 180 | 0.0 | 0.0 | 0.00 | 0.00 | 0.00 | 94 | 1024.7 |
| 20260509164558 | 5 | 180 | 0.0 | 0.0 | 0.00 | 0.00 | 0.00 | 95 | 1024.7 |
| 20260509163051 | 5 | 180 | 0.0 | 0.0 | 0.00 | 0.00 | 0.00 | 94 | 1024.7 |
| 20260509161549 | 5 | 180 | 0.0 | 0.0 | 0.00 | 0.00 | 0.00 | 94 | 1024.7 |
| 20260509160049 | 5 | 180 | 0.0 | 0.0 | 0.00 | 0.00 | 0.00 | 94 | 1024.7 |
| 20260509154555 | 5 | 180 | 0.0 | 0.0 | 0.00 | 0.00 | 0.00 | 94 | 1024.8 |